Cold Springs, Indiana
Current Conditions -  °F | °C
As of 4:15 AM on Wednesday 26 Nov 2014 (Local Time) from KANQ Reporting Station
Overcast Overcast  
Wind Chill: 19°   Ceiling: 1700
Heat Index: 25°   Visibility: 10mi
Dew Point: 19°   Wind: 5mph
Humidity: 80%   Direction: 90°E
Pressure: 30.16"   Gusts: NA
Location:  41.5557°N, 84.8806°W
Report Text: KANQ 260915Z AUTO 09004KT 10SM OVC017 M04/M07 A3016 RMK
Loading
Personal Weather Stations






























Interactive Weather Map New forecast layout! Learn more

10-Day Weather Forecast

Advertisements
Track Severe Weather on mobile